User: anonymous   Login
Location: Melbourne
(37.8170°S, 144.9670°E)
Time: 06:49:27
(UTC+10:00)
Language:

Cosmos 962 Rocket - Orbit

View from above orbital plane
View from above orbital plane
View from above satellite
View from above satellite

Ground track
Ground track

The orbit data is extracted from the following two-line orbital elements,

1 10461U 77107B   17177.15166194 +.00000088 +00000-0 +73628-4 0  9996
2 10461 082.9478 006.7514 0034553 121.9891 016.2864 13.76775495991725
Epoch (UTC): 26 June 2017 03:38:23
Eccentricity: 0.0034553
inclination: 82.9478°
perigee height: 950 km
apogee height: 1001 km
right ascension of ascending node: 6.7514°
argument of perigee: 121.9891°
revolutions per day: 13.76775495
mean anomaly at epoch: 16.2864°
orbit number at epoch: 99172

The dashed part of the orbit path shows where the satellite is in the earth's shadow,  

DLR